Terminal Aerodrome Forecast
Issued by NWS

Home | Current Version | Previous Version | Graphics & Text | Print | Product List | Glossary On
Versions: 1 2 3 4 5 6 7 8 9 10 11 12 13 14 15 16 17 18 19 20 21
000
FTUS43 KUNR 250500
TAFGCC
TAF
KGCC 250520Z 2506/2606 22014KT P6SM BKN080
     FM251600 30018G28KT 2SM -SN BKN008
     FM260000 31018G28KT P6SM BKN020=

USA.gov is the U.S. government's official web portal to all federal, state and local government web resources and services.